Location: Co�tlogon
(48.1427°N, 2.5429°W)
Time: 06:32:17
(UTC+00:00)

Daily predictions for brighter satellites

Satellite Brightness Start Highest point End
(mag) Time Altitude Azimuth Time Altitude Azimuth Time Altitude Azimuth
ATLAS 3B R/B 4.0 16:56:48 10° W 17:02:25 28° NNW 17:08:02 10° NE
Cosmos 1725 Rocket 4.0 17:00:26 10° N 17:06:49 76° E 17:13:07 10° SSE
SMAP 3.2 17:02:22 10° SE 17:06:53 52° ENE 17:11:25 10° N
Cosmos 2219 3.5 17:02:33 10° NNW 17:07:58 46° NE 17:13:21 10° SE
Cosmos 1408 Rocket 3.7 17:04:39 10° N 17:09:04 83° W 17:13:31 10° S
Cosmos 2016 Rocket 4.2 17:05:29 10° N 17:11:55 83° W 17:18:16 10° S
Cosmos 1238 Rocket 3.4 17:07:48 10° N 17:12:24 43° ENE 17:16:10 10° SE
Cosmos 2369 Rocket 3.7 17:08:58 10° WSW 17:13:58 32° NW 17:18:59 10° NNE
Cosmos 1500 Rocket 3.7 17:09:38 10° N 17:13:58 53° ENE 17:18:13 10° SSE
Cosmos 1689 Rocket 4.0 17:14:45 10° N 17:17:31 32° WNW 17:20:17 10° SW
Cosmos 1633 4.2 17:19:40 10° NNE 17:21:52 15° ENE 17:24:03 10° ESE
TELKOM 3 2.6 17:22:19 10° WNW 17:24:32 73° NNE 17:26:20 13° E
COSMO-SKYMED 1 3.8 17:22:46 10° NE 17:26:05 21° E 17:29:23 10° SE
Elektron 3 4.2 17:22:43 10° WSW 17:26:10 59° NW 17:29:02 10° NE
Cosmos 2344 3.7 17:20:25 10° SW 17:27:56 89° SE 17:36:19 10° NE
Cosmos 1455 3.2 17:24:48 10° SSW 17:28:27 48° WNW 17:32:07 10° N
COBE Rocket 4.2 17:24:08 10° NNE 17:28:44 41° E 17:33:11 10° SSE
Aureole 2 Rocket 4.2 17:26:14 10° WSW 17:29:15 30° WNW 17:32:24 10° N
Cosmos 1607 4.0 17:23:22 10° NNW 17:29:28 56° NE 17:35:37 10° SE
Cosmos 2227 Rocket 2.5 17:25:01 10° NNW 17:30:26 43° NE 17:35:49 10° SE
Cosmos 2297 Rocket 2.5 17:25:28 10° NNW 17:30:57 47° NE 17:36:22 10° SE
Sich 1 3.8 17:32:09 10° N 17:36:01 30° ENE 17:39:53 10° SE
CZ-4B R/B 4.3 17:34:22 10° NNW 17:36:18 15° WNW 17:38:14 10° W
CORIOLIS 4.1 17:32:13 10° SSE 17:37:37 83° ENE 17:43:05 10° NNW
Cosmos 2084 3.3 17:34:27 10° NW 17:38:48 77° NE 17:43:01 10° SE
Meteor 2-2 Rocket 4.5 17:33:13 10° SSE 17:38:52 51° E 17:44:26 10° NNE
YAOGAN 6 3.4 17:36:59 10° SE 17:40:01 28° ENE 17:43:03 10° N
NOSS 7 (D) 3.8 17:39:10 10° SSW 17:42:07 72° SE 17:44:01 18° NE
USA 215 3.6 17:37:19 12° E 17:43:10 50° NNE 17:49:26 10° NW
H-2A R/B 2.9 17:40:10 10° S 17:44:02 81° WSW 17:47:53 10° NNW
Envisat 3.0 17:41:24 10° SSE 17:46:23 60° ENE 17:51:25 10° N
USA 229 DEB 4.0 17:42:47 10° S 17:48:56 45° ESE 17:54:26 14° NE
USA 229 4.0 17:42:56 10° S 17:49:02 44° ESE 17:54:29 14° NE
Cosmos 1862 4.2 17:47:45 10° NNE 17:51:09 26° ENE 17:54:32 10° SE
Meteor 1-27 4.2 17:46:04 10° S 17:51:42 83° E 17:57:28 10° NNE
Cosmos 1943 Rocket 4.4 17:49:18 10° W 17:53:09 18° NW 17:57:02 10° N
Meteor 2-10 Rocket 4.3 17:48:44 10° SSW 17:53:36 52° WNW 17:58:33 10° N
NOSS 3-1 (A) 4.3 17:49:56 10° SSE 17:54:28 26° ESE 17:57:11 19° ENE
Genesis I 3.2 17:51:30 10° SSW 17:55:29 69° SE 17:58:15 19° NE
NOSS 3-1 (C) 3.7 17:50:32 10° S 17:55:40 41° ESE 17:59:56 17° ENE
Cosmos 2263 Rocket 3.8 17:53:27 10° N 17:56:26 14° NE 17:57:19 14° NE
Cosmos 2082 4.0 17:51:22 10° NNW 17:56:45 44° NE 18:02:06 10° SE
YAOGAN 1 3.1 17:53:01 10° SE 17:56:59 37° ENE 18:00:59 10° N
Okean-O 2.8 17:56:15 10° S 18:00:41 79° WSW 18:05:09 10° NNW
Cosmos 2221 3.0 17:58:46 10° SSW 18:03:01 62° WNW 18:07:21 10° N
SeaSat 1 2.9 18:02:14 10° SSE 18:07:07 64° WSW 18:12:03 10° NW
Cosmos 1697 Rocket 3.5 18:05:56 10° SSE 18:10:42 29° ESE 18:12:06 26° E
Cosmos 1356 Rocket 3.4 18:07:14 10° S 18:11:18 60° E 18:15:28 10° NNE
Geosat 4.1 18:08:32 10° NNE 18:13:35 78° WNW 18:18:36 10° SW
SKYMED 2 3.5 18:10:11 10° NNE 18:14:31 61° ESE 18:18:48 10° S
CZ-4 R/B 4.3 18:10:36 10° SSE 18:14:43 74° ENE 18:18:52 10° N
Lacrosse 4 Rocket 2.6 18:12:56 10° SSE 18:15:36 23° SE 18:15:36 23° SE
ATLAS 5 CENTAUR R/B 2.4 18:11:23 10° NW 18:17:07 87° SW 18:23:43 10° SE
CZ-3B R/B 3.9 18:15:03 10° WNW 18:17:17 29° N 18:17:52 27° NNE
Cosmos 1680 Rocket 4.3 18:15:50 10° SSE 18:20:17 29° E 18:20:19 29° E
Cosmos 1805 Rocket 4.1 18:22:41 10° NNW 18:26:59 61° W 18:31:17 10° S
Cosmos 1867 4.2 18:23:21 10° SW 18:28:42 55° NW 18:32:48 17° NNE
H-2A R/B 4.0 18:31:12 15° NNE 18:31:12 15° NNE 18:32:36 10° NNE
Ariane Rocket 3.4 18:28:23 36° E 18:29:22 39° ENE 18:34:06 10° N
ERBS 4.0 18:30:05 10° SSW 18:31:44 21° SSE 18:31:44 21° SSE
CZ-4 R/B 1.6 18:31:15 10° S 18:35:25 73° WSW 18:39:33 10° NNW
Cosmos 724 4.4 18:30:50 10° NNW 18:36:35 53° NE 18:38:19 39° E
GEOS 3 Rocket 4.4 18:34:17 17° NNE 18:38:05 47° NW 18:43:06 10° WSW
CENTAUR R/B 4.2 18:33:48 10° NW 18:39:35 25° N 18:42:52 19° NE
Cosmos 1869 4.2 18:36:16 10° SSW 18:40:06 49° WNW 18:43:57 10° N
NOAA 11 4.1 18:36:03 10° SSE 18:41:25 67° ENE 18:46:49 10° N
Cosmos 1464 Rocket 4.0 18:35:45 10° N 18:41:57 82° W 18:48:05 10° S
CZ-2D R/B 3.8 18:44:41 44° N 18:44:41 44° N 18:47:30 10° N
Cosmos 923 Rocket 3.9 18:38:50 10° S 18:43:57 59° ESE 18:45:14 46° NE
CSL-04 Debris 4.3 18:42:16 10° S 18:47:45 77° WSW 18:53:17 10° NNW
Cosmos 2056 Rocket 4.0 18:43:57 10° NNW 18:48:06 40° NE 18:48:06 40° NE
Cosmos 1624 Rocket 4.3 18:43:53 10° NNW 18:48:43 45° NE 18:48:43 45° NE
Cosmos 1656 3.5 18:44:00 10° SSW 18:49:35 89° WNW 18:52:28 30° NNE
Cosmos 1939 Rocket 3.1 18:53:38 60° N 18:53:38 60° N 18:57:07 10° N
Cosmos 397 4.3 18:50:16 10° NW 18:54:16 78° N 18:54:16 78° N
ATLAS 3B R/B 4.2 18:50:30 10° NW 18:55:22 21° N 18:57:16 19° NNE
Cosmos 1633 3.7 18:53:28 10° NNW 18:56:59 44° W 19:00:26 10° SSW
Cosmos 1633 Rocket 3.4 18:53:33 10° NNW 18:57:56 66° W 19:02:18 10° S
COSMO-SKYMED 1 3.6 18:58:18 10° N 19:02:28 45° WNW 19:06:35 10° SW
CSL-04 Rocket 4.4 19:02:57 10° S 19:08:12 53° W 19:13:26 10° NNW
DMSP B5D1-3 4.4 19:11:57 54° NNE 19:13:11 88° WNW 19:18:21 10° SSW
Cosmos 1980 Rocket 3.4 19:08:12 10° S 19:10:50 27° SSE 19:10:50 27° SSE
Gblst 52 Del rocket 4.5 19:07:22 10° W 19:14:08 65° N 19:15:03 58° NE
Cosmos 2227 Rocket 3.7 19:09:17 10° NW 19:14:24 35° WSW 19:19:28 10° S
Cosmos 2297 Rocket 3.8 19:09:50 10° NW 19:14:49 33° WSW 19:19:47 10° SSW
Cosmos 1328 Rocket 4.3 19:11:16 10° SSW 19:14:24 45° SSW 19:14:24 45° SSW
Cosmos 1932 4.4 19:14:26 10° NW 19:21:02 85° NE 19:21:52 70° SE
USA 215 3.2 19:24:41 62° SE 19:25:57 83° SW 19:32:33 10° NW
BREEZE-M DEB (TANK) 3.8 19:24:38 10° W 19:28:14 35° WNW 19:28:14 35° WNW
Cosmos 2369 3.8 19:24:21 10° SW 19:30:01 72° WNW 19:30:30 68° NNW
USA 229 DEB 4.3 19:33:21 10° WSW 19:39:49 52° NW 19:41:54 39° N
USA 229 4.2 19:33:29 10° WSW 19:39:55 52° NW 19:41:57 40° N
Cosmos 2263 Rocket 3.5 19:36:11 10° NNW 19:39:01 29° N 19:39:01 29° N
NOSS 3-1 (A) 3.6 19:39:05 10° SW 19:44:40 66° NW 19:44:40 66° NW
NOSS 3-1 (C) 4.1 19:40:52 10° WSW 19:46:24 48° NW 19:47:21 45° N
Cosmos 2278 4.4 19:44:55 10° SW 19:49:11 50° WSW 19:49:11 50° WSW
Cosmos 1697 Rocket 3.4 19:48:51 10° SW 19:53:53 51° WNW 19:53:53 51° WNW
Lacrosse 4 Rocket 4.0 19:50:57 10° WSW 19:51:58 16° WSW 19:51:58 16° WSW
H-2A R/B 4.3 20:11:50 18° NNW 20:11:50 18° NNW 20:13:09 10° NNW
CENTAUR R/B 4.1 20:25:18 10° NW 20:30:03 33° N 20:30:03 33° N
ATLAS 3B R/B 4.5 20:42:01 10° NW 20:44:31 22° NNW 20:44:31 22° NNW
